Showing default

HULIANWANG DIGUI-165, 68657

Orbit data source: Space-Track

HULIANWANG DIGUI-165, 68657 is a payload satellite owned by Zhongguo Xingwang (CN) in LEO that was launched on Wed, 08 Apr 2026 UTC via a CHANG ZHENG 6A launch vehicle from the Taiyaun Space Center, China (TSC). Payload-class satellites include a variety of spacecraft equipped with specific instruments for various scientific and technological missions. These include communications satellites like Starlink; space stations such as the ISS; scientific satellites like the Hubble; Earth observation satellites from companies like Planet Labs, Umbra, and HawkEye 360; GPS; miniature CubeSats for education and research; and military/defense satellites.

Loading next visibility...
Identifier
68657, 2026-076B
Orbit
LEO
Country
Flag of CNCN / PRC
Related business
Manufacturer
SECM
Mission
Operational spacecraft
Bus & Motor
XINGWANG S, Unknown motor
Mass
~800 kg wet, ~800 kg dry
Launch date (UTC)
2026-04-08 (1 month ago)
Launch vehicle
CHANG ZHENG 6A
Launch site
Taiyaun Space Center, China (TSC)
Object type
Payload
Rocket body
Debris
Shape & HBR
Unknown shape, 14.5 m
Radar Cross Section
RCS unknown

Expand to show TLE details & history
Last TLE update: 1 day ago

TLE from 1 day ago
0 HULIANWANG DIGUI-165
1 68657U 26076B   26139.79136872  .00000094  00000-0  14279-3 0  9996
2 68657  86.4970  53.5372 0001090  39.0032 321.1190 13.41134998  5601
Epoch: 2026-05-19T18:59Z
TLE epoch observation values (Epoch: 2026-05-19T18:59:34.257Z)
Latitude
-0.00002°
Longitude
-108.81575°
Altitude
1,107.338 km
Speed
7.299 km/s
True Right ascension
03h 34m 08s
True Declination
0° 00' 00"
Sunlit
Object was in daylight at epoch
Visualization orbit readout
Latitude
Unknown
Longitude
Unknown
Altitude
Unknown
Speed
Unknown
Apparent Right ascension
Unknown
Apparent Declination
Unknown
Sunlit
N/A
Visualization observer readout
Local Sidereal Time
07:59:21
Azimuth
Unknown
Elevation
Unknown
Doppler factor
Unknown
Orbital elements
Apogee altitude
1,102.965 km
Perigee altitude
1,101.335 km
Semi-major axis
7,480.287 km
Eccentricity
0.00011
Inclination
86.497°
RAAN
53.5372°
Arg. of periapsis
39.0032°
True anomaly
321.11116°
Mean anomaly
321.119°
Eccentric anomaly
321.11508°
Mean motion
3.35479 °/min
Orbital period
107.31 mins
BSTAR
0.00014279
Loading maneuver chart data...
Computing Atmospheric mass density...
Loading historical data...
Loading historical data...
Loading historical data...
Loading historical data...
Loading historical data...
Loading historical data...
Loading historical data...

Documentation

Showing up to 5 results
|